TimeCDT,TemperatureF,Dew PointF,Humidity,Sea Level PressureIn,VisibilityMPH,Wind Direction,Wind SpeedMPH,Gust SpeedMPH,PrecipitationIn,Events,Conditions,WindDirDegrees,DateUTC
12:15 AM,75.6,70.0,83,30.19,10.0,Calm,Calm,-,N/A,,Clear,0,2013-07-16 05:15:00
12:35 AM,74.7,69.8,85,30.19,10.0,South,4.6,-,N/A,,Clear,190,2013-07-16 05:35:00
12:55 AM,74.8,69.8,84,30.19,10.0,Calm,Calm,-,N/A,,Clear,0,2013-07-16 05:55:00
1:15 AM,73.4,69.6,88,30.19,10.0,SSE,3.5,-,N/A,,Clear,160,2013-07-16 06:15:00
1:35 AM,74.3,70.0,86,30.19,10.0,SSE,3.5,-,N/A,,Clear,160,2013-07-16 06:35:00
1:55 AM,73.0,70.0,90,30.19,10.0,SSE,3.5,-,N/A,,Clear,160,2013-07-16 06:55:00
2:15 AM,73.2,69.8,89,30.19,10.0,SSE,3.5,-,N/A,,Clear,160,2013-07-16 07:15:00
2:35 AM,73.0,69.6,89,30.19,10.0,Calm,Calm,-,N/A,,Clear,0,2013-07-16 07:35:00
2:55 AM,71.6,68.9,91,30.19,10.0,Calm,Calm,-,N/A,,Clear,0,2013-07-16 07:55:00
3:15 AM,72.0,69.1,91,30.19,10.0,Calm,Calm,-,N/A,,Clear,0,2013-07-16 08:15:00
3:35 AM,71.8,68.7,90,30.19,10.0,Calm,Calm,-,N/A,,Clear,0,2013-07-16 08:35:00
3:55 AM,70.9,68.2,91,30.19,10.0,Calm,Calm,-,N/A,,Clear,0,2013-07-16 08:55:00
4:15 AM,71.2,68.9,92,30.19,10.0,Calm,Calm,-,N/A,,Clear,0,2013-07-16 09:15:00
4:35 AM,70.9,69.1,94,30.19,10.0,South,3.5,-,N/A,,Clear,170,2013-07-16 09:35:00
4:55 AM,70.3,68.4,93,30.20,10.0,Calm,Calm,-,N/A,,Clear,0,2013-07-16 09:55:00
5:15 AM,69.4,68.0,95,30.20,10.0,Calm,Calm,-,N/A,,Clear,0,2013-07-16 10:15:00
5:35 AM,70.2,68.5,95,30.20,10.0,Calm,Calm,-,N/A,,Clear,0,2013-07-16 10:35:00
5:55 AM,69.1,66.9,93,30.21,7.0,Calm,Calm,-,N/A,,Clear,0,2013-07-16 10:55:00
6:15 AM,69.4,67.6,94,30.22,7.0,Calm,Calm,-,N/A,,Clear,0,2013-07-16 11:15:00
6:35 AM,69.1,67.6,95,30.22,5.0,Calm,Calm,-,N/A,,Clear,0,2013-07-16 11:35:00
6:55 AM,71.1,69.4,95,30.22,10.0,South,3.5,-,N/A,,Clear,170,2013-07-16 11:55:00
7:15 AM,72.7,70.0,91,30.23,10.0,Calm,Calm,-,N/A,,Clear,0,2013-07-16 12:15:00
7:35 AM,74.3,70.7,88,30.23,10.0,SSW,3.5,-,N/A,,Clear,200,2013-07-16 12:35:00
7:55 AM,76.1,70.9,84,30.23,10.0,SSW,4.6,-,N/A,,Clear,210,2013-07-16 12:55:00
8:15 AM,77.0,71.1,82,30.25,10.0,SSW,4.6,-,N/A,,Clear,200,2013-07-16 13:15:00
8:35 AM,78.3,70.5,77,30.25,10.0,South,3.5,-,N/A,,Clear,190,2013-07-16 13:35:00
8:55 AM,79.9,70.7,73,30.25,10.0,SSW,5.8,-,N/A,,Clear,210,2013-07-16 13:55:00
9:15 AM,81.5,70.2,68,30.26,10.0,SSW,4.6,-,N/A,,Clear,210,2013-07-16 14:15:00
9:35 AM,82.4,69.3,64,30.26,10.0,SSW,6.9,-,N/A,,Clear,210,2013-07-16 14:35:00
9:55 AM,83.1,69.8,64,30.26,10.0,South,6.9,-,N/A,,Clear,190,2013-07-16 14:55:00
10:15 AM,84.4,68.5,59,30.26,10.0,SSW,6.9,-,N/A,,Clear,200,2013-07-16 15:15:00
10:55 AM,86.2,67.6,54,30.26,10.0,SW,6.9,-,N/A,,Clear,220,2013-07-16 15:55:00
11:15 AM,86.9,65.3,48,30.26,10.0,WSW,8.1,-,N/A,,Clear,240,2013-07-16 16:15:00
11:35 AM,87.8,64.4,46,30.26,10.0,SW,9.2,-,N/A,,Clear,230,2013-07-16 16:35:00
11:55 AM,88.0,63.7,44,30.26,10.0,SW,8.1,-,N/A,,Clear,220,2013-07-16 16:55:00
12:15 PM,88.9,61.2,39,30.26,10.0,SW,9.2,-,N/A,,Clear,230,2013-07-16 17:15:00
12:35 PM,89.1,62.1,40,30.26,10.0,SSW,9.2,-,N/A,,Clear,200,2013-07-16 17:35:00
12:55 PM,89.8,62.1,39,30.26,10.0,SW,8.1,16.1,N/A,,Clear,220,2013-07-16 17:55:00
1:15 PM,90.0,60.6,37,30.26,10.0,South,11.5,18.4,N/A,,Clear,190,2013-07-16 18:15:00
1:35 PM,90.5,60.4,36,30.26,10.0,SSW,9.2,-,N/A,,Clear,210,2013-07-16 18:35:00
1:55 PM,90.3,59.9,36,30.25,10.0,SW,10.4,16.1,N/A,,Clear,230,2013-07-16 18:55:00
2:15 PM,90.7,59.2,35,30.25,10.0,SSW,10.4,-,N/A,,Clear,210,2013-07-16 19:15:00
2:35 PM,90.7,59.7,35,30.25,10.0,South,11.5,-,N/A,,Clear,190,2013-07-16 19:35:00
3:55 PM,91.8,61.5,36,30.24,10.0,South,8.1,-,N/A,,Clear,190,2013-07-16 20:55:00
4:15 PM,92.3,63.1,38,30.23,10.0,SW,11.5,16.1,N/A,,Scattered Clouds,220,2013-07-16 21:15:00
4:35 PM,91.4,62.2,38,30.23,10.0,South,10.4,-,N/A,,Scattered Clouds,190,2013-07-16 21:35:00
4:55 PM,92.1,62.6,37,30.23,10.0,SSW,10.4,-,N/A,,Clear,210,2013-07-16 21:55:00
5:15 PM,91.8,63.3,39,30.23,10.0,SSW,6.9,-,N/A,,Clear,210,2013-07-16 22:15:00
5:35 PM,91.8,63.0,38,30.23,7.0,SW,10.4,-,N/A,,Clear,220,2013-07-16 22:35:00
5:55 PM,91.0,63.9,40,30.23,10.0,SW,8.1,-,N/A,,Clear,220,2013-07-16 22:55:00
6:15 PM,90.9,64.4,41,30.23,10.0,SSW,6.9,-,N/A,,Clear,200,2013-07-16 23:15:00
6:35 PM,90.5,64.2,42,30.23,10.0,SSW,6.9,-,N/A,,Clear,210,2013-07-16 23:35:00
6:55 PM,90.3,65.3,43,30.22,10.0,SW,8.1,-,N/A,,Scattered Clouds,220,2013-07-16 23:55:00
7:15 PM,89.8,65.8,45,30.22,10.0,SSW,6.9,-,N/A,,Clear,210,2013-07-17 00:15:00
7:35 PM,88.2,67.1,50,30.23,10.0,SW,5.8,-,N/A,,Clear,220,2013-07-17 00:35:00
7:55 PM,87.4,68.2,53,30.23,10.0,SW,3.5,-,N/A,,Clear,230,2013-07-17 00:55:00
8:15 PM,86.0,68.7,56,30.23,10.0,SSW,4.6,-,N/A,,Clear,200,2013-07-17 01:15:00
8:35 PM,84.0,69.8,62,30.23,10.0,SSW,3.5,-,N/A,,Clear,210,2013-07-17 01:35:00
8:55 PM,82.9,69.8,64,30.23,10.0,Calm,Calm,-,N/A,,Clear,0,2013-07-17 01:55:00
9:15 PM,80.6,70.9,72,30.24,10.0,South,3.5,-,N/A,,Clear,180,2013-07-17 02:15:00
9:35 PM,80.8,70.3,70,30.25,10.0,SSE,3.5,-,N/A,,Clear,160,2013-07-17 02:35:00
9:55 PM,79.9,69.8,71,30.25,10.0,SSE,5.8,-,N/A,,Clear,150,2013-07-17 02:55:00
10:15 PM,78.8,69.8,74,30.25,10.0,SSE,5.8,-,N/A,,Clear,160,2013-07-17 03:15:00
10:35 PM,79.0,69.8,73,30.25,10.0,Calm,Calm,-,N/A,,Clear,0,2013-07-17 03:35:00
10:55 PM,76.6,69.8,79,30.26,10.0,SSE,4.6,-,N/A,,Clear,150,2013-07-17 03:55:00
11:15 PM,75.9,69.3,80,30.26,10.0,Calm,Calm,-,N/A,,Clear,0,2013-07-17 04:15:00
11:35 PM,75.7,69.6,81,30.26,10.0,Calm,Calm,-,N/A,,Clear,0,2013-07-17 04:35:00
11:55 PM,75.6,69.6,82,30.26,10.0,Calm,Calm,-,N/A,,Clear,0,2013-07-17 04:55:00